Lid_Strength_Index
16 16 16 16 16 16 17 17 17 17 17 17 17 17 17 17 17 18 18 17 16 15 15 15 15 14 14 13 12 13 13 12 14 12 10 5 4 5 6 6 7 7 7
16 16 16 16 16 17 17 17 17 18 17 17 17 18 18 18 18 18 19 17 17 16 15 15 16 15 15 14 14 14 13 13 13 14 11 8 5 5 5 7 7 6 6
16 16 16 16 17 17 17 17 17 18 19 18 18 18 18 19 19 19 18 17 16 15 15 16 16 16 16 15 15 14 14 13 12 13 13 9 6 8 7 7 8 8 7
16 16 16 17 17 17 17 17 17 18 19 19 20 19 19 20 19 18 17 17 16 15 15 16 16 17 17 16 15 15 14 14 13 13 13 11 8 8 6 7 10 11 10
16 16 16 16 17 17 17 17 17 17 18 19 19 20 21 20 19 18 17 16 16 16 16 16 16 17 15 15 16 15 14 14 14 14 13 12 10 10 9 9 9 11 14
16 16 16 16 16 16 17 17 18 18 18 18 19 20 21 20 17 16 16 17 17 17 18 17 18 17 16 15 15 14 13 14 15 14 14 13 12 9 8 9 10 13 13
17 16 16 16 16 17 17 18 18 19 19 19 19 21 24 22 18 16 15 17 18 19 19 19 19 17 18 17 15 13 13 13 13 13 13 12 13 11 10 11 11 11 11
15 15 15 16 16 17 18 19 19 19 20 22 23 25 26 24 17 16 15 18 20 20 21 20 20 19 18 17 16 15 16 15 14 13 12 12 11 10 10 11 10 11 13
16 15 16 16 17 18 19 20 21 22 24 26 23 25 26 25 18 16 16 19 18 20 19 19 20 19 16 13 15 18 17 16 13 11 10 10 9 7 8 10 12 12 14
16 16 16 18 17 19 20 20 21 24 23 23 24 24 24 26 19 16 16 17 18 19 18 19 15 16 13 13 16 17 18 16 14 14 14 13 11 9 9 9 10 11 13
16 18 18 19 19 19 20 21 22 24 24 28 26 25 25 24 23 15 13 16 17 16 16 16 16 13 13 13 14 17 16 14 15 16 16 15 13 9 9 9 10 10 12
19 19 20 20 19 19 20 21 22 24 25 27 27 25 22 22 18 14 12 11 11 14 15 15 14 12 13 13 15 15 14 15 18 18 18 18 17 16 11 10 11 12 13
22 22 23 22 20 19 21 23 24 24 25 25 24 23 21 18 18 12 11 10 9 11 12 11 13 13 14 16 15 15 18 20 19 20 20 20 18 17 14 12 14 14 15
22 23 23 23 23 23 20 20 21 23 24 22 22 21 19 16 16 14 13 11 9 10 11 17 14 15 16 16 19 18 20 20 20 20 21 20 18 17 16 14 14 15 16
22 23 23 22 22 22 20 20 19 19 19 20 19 16 15 15 15 10 9 9 10 9 14 19 19 19 20 20 20 20 20 21 21 22 22 21 20 20 19 14 15 16 16
20 20 20 20 21 20 20 20 15 13 11 10 10 11 11 10 9 9 8 8 7 8 21 26 21 21 21 21 22 22 22 22 22 23 23 22 22 21 20 18 14 15 16
18 18 19 18 19 20 20 20 20 17 13 12 12 11 11 11 9 9 9 8 9 13 27 26 23 22 22 22 22 23 24 23 23 23 23 23 22 22 22 21 16 16 16
20 19 19 20 20 21 21 20 20 20 20 19 16 15 13 11 11 11 10 11 20 19 27 26 25 24 23 23 23 24 25 25 24 24 24 24 24 24 24 23 21 18 17
20 20 19 21 22 22 21 19 20 21 22 22 21 19 18 15 13 12 11 23 24 23 23 26 26 26 25 25 25 26 27 26 25 26 25 25 25 25 25 24 23 22 17
22 21 21 21 23 23 23 21 21 23 24 26 24 24 25 28 26 24 26 28 30 26 24 24 25 27 27 27 27 28 28 28 26 26 26 25 26 26 26 25 24 24 22
21 21 20 22 23 22 21 22 21 21 23 24 24 22 16 18 21 26 23 24 25 25 24 23 25 27 26 27 29 31 32 29 27 27 27 27 26 27 26 26 26 24 22
21 21 21 21 20 20 20 20 20 22 22 24 24 25 15 25 24 23 23 23 23 24 23 23 24 27 26 26 27 30 32 32 29 27 28 28 27 27 27 27 27 26 24
23 23 23 21 20 19 19 20 20 21 22 24 24 24 26 27 26 25 23 23 23 22 24 25 25 26 26 27 29 31 32 31 31 28 29 29 28 28 28 28 28 27 26
22 22 21 20 19 20 19 19 20 21 23 24 26 26 25 25 24 22 23 22 22 21 23 24 25 26 27 27 28 31 34 33 34 31 29 29 29 28 28 28 28 27 26
20 20 20 20 20 19 19 20 20 21 23 25 25 26 26 24 23 22 22 24 22 21 22 24 25 26 28 28 29 30 30 28 32 32 30 31 30 29 28 28 27 27 26
19 19 19 19 19 19 20 20 20 21 23 24 25 25 25 24 22 23 22 24 22 21 23 25 25 26 27 28 29 27 26 23 25 27 29 29 29 29 28 28 27 27 27